Regional Weather Roundup
Issued by NWS Kansas City/Pleasant Hill, MO

Home | Current Version | Previous Version | Text Only | Print | Product List | Glossary On
Versions: 1 2 3 4 5 6 7 8 9 10 11 12 13 14 15 16 17 18 19 20 21 22 23 24 25 26 27
000
ASUS43 KEAX 250910
RWREAX

WEATHER ROUNDUP FOR EASTERN KANSAS AND NORTHWEST MISSOURI
NATIONAL WEATHER SERVICE KANSAS CITY/PLEASANT HILL MO
400 AM CDT WED MAY 25 2016

KSZ040-057-103>105-MOZ028-029-037-043-251000-
...KANSAS CITY METROPOLITAN AREA...

CITY           SKY/WX    TMP DP  RH WIND       PRES   REMARKS
K.C. INTL      LGT RAIN  65  60  84 W14G23    29.88F
K.C. DOWNTOWN  LGT RAIN  67  62  84 S7        29.91F
LEES SUMMIT    LGT RAIN  65  62  90 S9        29.95S
OLATHE - IXD   LGT RAIN  63  61  93 W17G24    29.95S
OLATHE - OJC   LGT RAIN  63  60  90 W6        29.92F
LAWRENCE       LGT RAIN  62  61  96 SW21G26   29.97R FOG

$$

MOZ001>008-011>017-020>025-030>033-038>040-044>046-053-054-251000-
...NORTHERN AND CENTRAL MISSOURI...

CITY           SKY/WX    TMP DP  RH WIND       PRES   REMARKS
ST. JOSEPH     LGT RAIN  66  61  84 SW18G24   29.88F
MOSBY          CLOUDY    66  63  88 SW3       29.90F
WARRENSBURG    LGT RAIN  64  63  94 SW9       29.94R
WHITEMAN AFB   LGT RAIN  64  64 100 W12       29.94R
CLINTON        CLOUDY    64  64 100 S5        29.95R
SEDALIA        CLOUDY    64  62  93 S7        29.93S
WARSAW         NOT AVBL
CHILLICOTHE      N/A     67  63  87 S6        29.90R
KIRKSVILLE     CLOUDY    63  62  97 S8        29.92S

$$

MOZ041-047>049-056>058-063>065-088>090-097-251000-
...EASTERN AND SOUTHERN MISSOURI...

CITY           SKY/WX    TMP DP  RH WIND       PRES   REMARKS
ST. LOUIS INTL MOCLDY    66  61  84 SE8       29.98S
SPIRIT OF STL  CLEAR     61  61 100 CALM      29.97R
COLUMBIA       MOCLDY    61  61 100 SE10      29.94S
JEFFERSON CITY MOCLDY    62  60  93 E8        29.95S
ROLLA          CLOUDY    60  59  96 S7        29.97R
SPRINGFIELD    CLOUDY    65  62  90 S8        29.97R
JOPLIN         LGT RAIN  68  66  93 NE7       29.94F
WEST PLAINS    PTCLDY    59  56  89 CALM      30.02R

$$

IAZ060-094-KSZ022-034>040-054-083-096-NEZ052-066-093-251000-
...KANSAS...SOUTHEAST NEBRASKA AND IOWA...

CITY           SKY/WX    TMP DP  RH WIND       PRES   REMARKS
TOPEKA         LGT RAIN  65  59  81 SE26G44   29.82F
MANHATTAN      LGT RAIN  63  62  97 CALM      29.80F
EMPORIA        LGT RAIN  64  59  83 SE25G33   29.86F
CHANUTE        LGT RAIN  66  59  78 N13       29.96R
WICHITA        CLOUDY    64  62  93 SE14      29.86F
OMAHA          LGT RAIN  66  60  81 SE10      29.79S
LINCOLN        CLOUDY    68  56  65 SE8       29.73R
FALLS CITY     CLOUDY    64  62  93 CALM      29.83F
LAMONI         CLOUDY    66  64  93 S13       29.86R
DES MOINES     CLOUDY    67  63  87 SE7       29.85R

$$





USA.gov is the U.S. government's official web portal to all federal, state and local government web resources and services.